Carbondale, IL

1:35 AM CDT on May 30, 2017 (GMT -0500)
Southern Illinois

Weather History for KMDH - February, 2014

Change the Weather History Date:

Wednesday, February 19, 2014

  Actual Average Record
Temperature  
Mean Temperature 47 °F -  
Max Temperature 53 °F 47 °F 72 °F (1930)
Min Temperature 41 °F 28 °F -6 °F (1936)
Degree Days  
Heating Degree Days 18    
Moisture  
Dew Point 36 °F    
Average Humidity 66    
Maximum Humidity 86    
Minimum Humidity 53    
Precipitation  
Precipitation 0.00 in - - ()
Sea Level Pressure  
Sea Level Pressure 29.96 in    
Wind  
Wind Speed 8 mph (NW)    
Max Wind Speed 12 mph    
Max Gust Speed -    
Visibility 10 miles    
Events      
Averages and records for this station are not official NWS values.
T = Trace of Precipitation, MM = Missing Value Source: NWS Daily Summary

Daily Weather History Graph

Daily Weather History Graph

Search for Another Location

Airport or City:

Trip Planner

Search our weather history database for the weather conditions in past years. The results will help you decide how hot, cold, wet, or windy it might be!

Date:

Astronomy

Feb. 19, 2014 Rise Set
Actual Time 6:41 AM CST 5:40 PM CST
Civil Twilight 6:15 AM CST 6:07 PM CST
Nautical Twilight 5:44 AM CST 6:37 PM CST
Astronomical Twilight 5:14 AM CST 7:08 PM CST
Moon 10:27 PM CST (2/19) 8:53 AM CST (2/19)
Length of Visible Light 11h 51m
Length of Day
10h 58m
Waning Gibbous, 79% of the Moon is Illuminated
Feb 19
Waning Gibbous
Feb 22
Last Quarter
Mar 1
New
Mar 8
First Quarter
Mar 16
Full

Hourly Weather History & Observations

Time (CST) Temp. Windchill Dew Point Humidity Pressure Visibility Wind Dir Wind Speed Gust Speed Precip Events Conditions
12:52 AM 52.0 °F - 48.0 °F 86% 29.81 in 9.0 mi WSW 11.5 mph - N/A   Clear
1:52 AM 51.1 °F - 46.9 °F 86% 29.83 in 10.0 mi West 11.5 mph - N/A   Clear
2:52 AM 48.0 °F - 44.1 °F 86% 29.86 in 10.0 mi West 8.1 mph - N/A   Clear
3:52 AM 46.9 °F - 33.1 °F 59% 29.89 in 10.0 mi WNW 10.4 mph - N/A   Clear
4:52 AM 45.0 °F 39.3 °F 30.9 °F 58% 29.92 in 10.0 mi NW 11.5 mph - N/A   Clear
5:52 AM 41.0 °F 39.0 °F 30.9 °F 67% 29.95 in 10.0 mi West 3.5 mph - N/A   Clear
6:52 AM 41.0 °F 38.0 °F 30.9 °F 67% 29.99 in 10.0 mi West 4.6 mph - N/A   Clear
7:52 AM 41.0 °F 37.1 °F 30.9 °F 67% 30.03 in 10.0 mi WSW 5.8 mph - N/A   Partly Cloudy
8:52 AM 45.0 °F 43.5 °F 33.1 °F 63% 30.05 in 10.0 mi West 3.5 mph - N/A   Clear
9:52 AM 46.9 °F - 34.0 °F 61% 30.06 in 10.0 mi NW 6.9 mph - N/A   Mostly Cloudy
10:52 AM 48.9 °F - 36.0 °F 61% 30.04 in 10.0 mi NNW 8.1 mph - N/A   Overcast
11:52 AM 50.0 °F - 35.1 °F 57% 30.08 in 10.0 mi Calm Calm - N/A   Clear
12:52 PM 52.0 °F - 36.0 °F 54% 30.03 in 10.0 mi North 4.6 mph - N/A   Overcast
1:52 PM 52.0 °F - 35.1 °F 53% 30.01 in 10.0 mi Calm Calm - N/A   Overcast
2:52 PM 53.1 °F - 37.0 °F 55% 30.01 in 10.0 mi East 4.6 mph - N/A   Mostly Cloudy
3:52 PM 51.1 °F - 36.0 °F 56% 30.00 in 10.0 mi East 4.6 mph - N/A   Clear
4:52 PM 50.0 °F - 34.0 °F 54% 29.96 in 10.0 mi East 6.9 mph - N/A   Clear
5:52 PM 46.9 °F - 33.1 °F 59% 29.98 in 10.0 mi ESE 5.8 mph - N/A   Mostly Cloudy
6:52 PM 45.0 °F 40.6 °F 35.1 °F 68% 29.97 in 10.0 mi East 8.1 mph - N/A   Clear
7:52 PM 42.1 °F 37.1 °F 34.0 °F 73% 29.95 in 10.0 mi East 8.1 mph - N/A   Clear
8:52 PM 43.0 °F 38.2 °F 35.1 °F 74% 29.93 in 10.0 mi ESE 8.1 mph - N/A   Overcast
9:52 PM 43.0 °F 38.2 °F 36.0 °F 76% 29.90 in 10.0 mi ESE 8.1 mph - N/A   Overcast
10:52 PM 45.0 °F 40.1 °F 35.1 °F 68% 29.86 in 10.0 mi ESE 9.2 mph - N/A   Overcast
11:52 PM 45.0 °F 40.1 °F 35.1 °F 68% 29.82 in 10.0 mi ESE 9.2 mph - N/A   Overcast